[[{"header":{"parameterUnit":"m.s-1","parameterCategory":1,"la1":30.2991,"la2":30.254,"lo1":-89.0895,"lo2":-89.0444,"dy":0.0017,"dx":0.0017,"nx":28,"ny":28,"refTime":"2023-09-30T09:00:00:Z","depth":0,"parameterNumber":2,"parameterNumberName":"U-component_of_WINDS"},"data":[0,0,0,0,0,0,0,0,0,0,0,0,0,0,0,0,0,0,0,0,0,0,0,0,0,0,0,0,0,0,0,0,0,0,0,0,0,0,0,0,0,0,0,0,0,0,0,0,0,0,0,0,0,0,0,0,0,0,-3.3902,-3.3902,0,-3.3974,-3.3975,-3.3976,-3.3857,-3.3853,-3.3849,-3.3845,-3.3922,-3.3928,-3.3934,0,0,0,0,0,0,0,0,0,0,0,0,0,-3.3663,-3.3668,-3.3901,-3.3902,-3.3903,-3.3974,-3.3975,-3.3976,-3.3858,-3.3853,-3.3848,-3.3843,-3.392,-3.3927,-3.3934,0,0,0,0,0,0,0,0,0,0,0,0,0,-3.3754,-3.3669,-3.3901,-3.3853,-3.3849,-3.3974,-3.3975,-3.3976,-3.3859,-3.3853,-3.3847,-3.3841,-3.3918,-3.3927,-3.3935,-3.4112,0,0,-3.3962,-3.3966,0,0,0,0,0,0,0,0,-3.3749,-3.3763,-3.3859,-3.3856,-3.3852,-3.39,-3.3919,-3.4022,-3.386,-3.3855,-3.3845,-3.3838,-3.392,-3.3928,-3.3955,-3.4115,-3.4119,-3.3963,-3.3968,-3.3972,-3.3975,0,0,0,0,0,0,0,-3.3743,-3.3759,-3.393,-3.3861,-3.3857,-3.3828,-3.3834,-3.3938,-3.3921,-3.3855,-3.3847,-3.3857,-3.3917,-3.3947,-3.3956,-3.412,-3.3963,-3.3971,-3.3976,-3.3979,-3.4429,-3.4435,0,0,0,0,0,0,-3.3742,-3.3755,-3.3928,-3.3932,-3.3785,-3.3837,-3.3844,-3.3891,-3.392,-3.3918,-3.3862,-3.3851,-3.3935,-3.3946,-3.3959,-3.4168,-3.3972,-3.398,-3.3985,-3.4422,-3.4431,-3.4438,0,0,0,0,0,0,-3.3738,-3.3759,-3.3925,-3.3841,-3.386,-3.3848,-3.3901,-3.3896,-3.3926,-3.3925,-3.3921,-3.3896,-3.3931,-3.3946,-3.4075,-3.4169,-3.3984,-3.3992,-3.4415,-3.4425,-3.4434,-3.4589,0,0,0,0,0,0,-3.3731,-3.3758,-3.3824,-3.3844,-3.3865,-3.404,-3.3907,-3.3902,-3.3941,-3.3927,-3.3956,-3.3954,-3.3927,-3.4062,-3.4083,-3.4178,-3.3999,-3.4406,-3.4419,-3.4431,-3.4575,-3.4603,-3.4626,0,0,0,0,0,-3.3723,-3.3865,-3.3828,-3.385,-3.3948,-3.4045,-3.4058,-3.4023,-3.3949,-3.4016,-3.4015,-3.3953,-3.4155,-3.4076,-3.4099,-3.4198,-3.44,-3.4415,-3.443,-3.4564,-3.4597,-3.4626,0,0,0,0,0,0,-3.3859,-3.3867,-3.3826,-3.3979,-3.4012,-3.4025,-3.4109,-3.4059,-3.4115,-3.41,-3.4055,-3.4063,-3.4201,-3.4211,-3.4124,-3.4371,-3.4265,-3.4286,-3.4359,-3.4391,-3.4416,-3.4412,-3.4006,0,0,0,0,0,-3.3906,-3.3983,-3.3987,-3.4121,-3.414,-3.4122,-3.4163,-3.4133,-3.4166,-3.418,-3.4188,-3.4224,-3.4295,-3.4343,-3.4408,-3.4575,-3.458,-3.4654,-3.468,-3.4701,-3.472,-3.481,-3.4844,-3.4487,-3.4487,-3.4487,0,0,-3.4005,-3.4019,-3.4071,-3.4149,-3.4171,-3.4253,-3.4134,-3.4226,-3.4287,-3.4194,-3.4316,-3.4324,-3.436,-3.4509,-3.4575,-3.4522,-3.4819,-3.472,-3.4737,-3.4744,-3.4829,-3.4863,-3.4893,-3.4497,-3.4495,-3.4494,0,0,-3.4228,-3.4246,-3.4361,-3.4385,-3.442,-3.4407,-3.4435,-3.4455,-3.4456,-3.4578,-3.451,-3.4581,-3.4705,-3.4734,-3.4765,-3.4999,-3.4945,-3.5021,-3.5156,-3.5245,-3.5273,-3.5298,-3.5383,-3.5414,-3.5039,-3.504,-3.504,0,-3.4348,-3.4468,-3.4426,-3.4523,-3.456,-3.4477,-3.4594,-3.462,-3.4675,-3.4703,-3.4642,-3.4796,-3.4814,-3.4969,-3.5026,-3.5053,-3.5085,-3.5019,-3.5272,-3.5296,-3.5319,-3.54,-3.5432,-3.5049,-3.5048,-3.5047,-3.5046,0,-3.4614,-3.4699,-3.4787,-3.4842,-3.4888,-3.4994,-3.4969,-3.5021,-3.4987,-3.498,-3.5105,-3.5124,-3.5193,-3.5227,-3.5195,-3.5378,-3.5344,-3.5279,-3.5173,-3.5363,-3.5438,-3.5469,-3.5062,-3.5059,-3.5056,-3.5054,0,0,-3.4927,-3.4956,-3.4989,-3.5013,-3.5046,-3.5111,-3.5213,-3.5279,-3.5326,-3.5366,-3.5452,-3.5558,-3.5497,-3.5533,-3.5503,-3.558,-3.5767,-3.5505,-3.5505,-3.5555,-3.5972,-3.6023,-3.6059,-3.573,-3.5735,-3.574,-3.597,0,-3.5151,-3.5327,-3.5292,-3.5465,-3.5543,-3.5466,-3.5555,-3.5586,-3.5582,-3.5649,-3.5645,-3.5721,-3.5635,-3.5656,-3.5729,-3.5729,-3.585,-3.5711,-3.5811,-3.5816,-3.5807,-3.6098,-3.6153,-3.6369,-3.5999,-3.6003,-3.6007,0,-3.5436,-3.5486,-3.5668,-3.5687,-3.5719,-3.58,-3.5858,-3.5922,-3.5955,-3.5947,-3.5986,-3.5942,-3.6045,-3.5935,-3.6077,-3.5984,-3.6022,-3.6028,-3.6036,-3.6046,-3.5925,-3.6119,-3.6436,-3.647,-3.6053,-3.6049,-3.6046,0,-3.5648,-3.5762,-3.5885,-3.5907,-3.5933,-3.5993,-3.6006,-3.6032,-3.6075,-3.6125,-3.6152,-3.6214,-3.6249,-3.6299,-3.6273,-3.6195,-3.6421,-3.6309,-3.6419,-3.642,-3.6472,-3.647,-3.6803,-3.6493,-3.6493,-3.6492,-3.6491,0,-3.5903,-3.6018,-3.5981,-3.6057,-3.6183,-3.6141,-3.6267,-3.6272,-3.6296,-3.6372,-3.6308,-3.6382,-3.6341,-3.6412,-3.6392,-3.6514,-3.653,-3.6527,-3.6521,-3.6535,-3.6536,-3.6561,-3.6547,-3.65,-3.6499,-3.6497,-3.6495,0,-3.6164,-3.6143,-3.6272,-3.6286,-3.6292,-3.6385,-3.6397,-3.6468,-3.6459,-3.6557,-3.6577,-3.6564,-3.6644,-3.6621,-3.6708,-3.6694,-3.685,-3.6823,-3.6839,-3.6833,-3.6946,-3.6936,-3.7309,-3.7357,-3.7014,-3.7017,-3.702,0,-3.6329,-3.6415,-3.6438,-3.6484,-3.6502,-3.6577,-3.662,-3.6581,-3.6628,-3.6672,-3.6739,-3.6812,-3.687,-3.7001,-3.7,-3.7066,-3.7042,-3.7168,-3.7052,-3.7063,-3.7047,-3.7043,-3.7052,-3.7192,-3.7196,-3.7199,-3.7202,0,-3.6626,-3.6611,-3.6674,-3.6734,-3.6786,-3.6832,-3.6872,-3.6914,-3.6878,-3.6934,-3.7014,-3.7059,-3.7147,-3.7222,-3.7282,-3.7297,-3.7246,-3.7238,-3.7267,-3.7284,-3.729,-3.729,-3.6905,-3.723,-3.7228,-3.7225,-3.7224,-3.7223,-3.6845,-3.6918,-3.6946,-3.7018,-3.7044,-3.7083,-3.7151,-3.715,-3.7216,-3.7284,-3.7257,-3.735,-3.7381,-3.7456,-3.7479,-3.7552,-3.7504,-3.7546,-3.7557,-3.7569,-3.7584,-3.7276,-3.7562,-3.7561,-3.756,-3.756,-3.7559,0,-3.714,-3.7154,-3.7221,-3.7278,-3.7336,-3.7279,-3.732,-3.7373,-3.7455,-3.7487,-3.7545,-3.7638,-3.771,-3.7714,-3.7781,-3.7839,-3.7817,-3.7859,-3.7855,-3.786,-3.7622,-3.7591,-3.7875,-3.7875,-3.7875,-3.7875,-3.7875,-3.7875,-3.7301,-3.7422,-3.7411,-3.7545,-3.7558,-3.7648,-3.7676,-3.7712,-3.7738,-3.7844,-3.7903,-3.7905,-3.7926,-3.7995,-3.8059,-3.8058,-3.8088,-3.8139,-3.813,-3.7908,-3.7876,-3.7847,-3.7817,-3.8145,-3.8145,-3.8362,-3.8364,-3.8365]},{"header":{"parameterUnit":"m.s-1","parameterCategory":1,"la1":30.2991,"la2":30.254,"lo1":-89.0895,"lo2":-89.0444,"dy":0.0017,"dx":0.0017,"nx":28,"ny":28,"refTime":"2023-09-30T09:00:00:Z","depth":0,"parameterNumber":3,"parameterNumberName":"V-component_of_WINDS"},"data":[0,0,0,0,0,0,0,0,0,0,0,0,0,0,0,0,0,0,0,0,0,0,0,0,0,0,0,0,0,0,0,0,0,0,0,0,0,0,0,0,0,0,0,0,0,0,0,0,0,0,0,0,0,0,0,0,0,0,-3.2648,-3.2649,0,-3.2657,-3.2657,-3.2657,-3.2617,-3.2616,-3.2615,-3.2614,-3.2621,-3.2623,-3.2624,0,0,0,0,0,0,0,0,0,0,0,0,0,-3.2597,-3.2598,-3.2648,-3.2649,-3.2649,-3.2657,-3.2657,-3.2657,-3.2617,-3.2616,-3.2614,-3.2613,-3.2621,-3.2623,-3.2624,0,0,0,0,0,0,0,0,0,0,0,0,0,-3.2614,-3.2599,-3.2648,-3.263,-3.2628,-3.2657,-3.2657,-3.2657,-3.2617,-3.2616,-3.2614,-3.2612,-3.2621,-3.2622,-3.2624,-3.2671,0,0,-3.263,-3.2631,0,0,0,0,0,0,0,0,-3.2613,-3.2616,-3.2633,-3.2631,-3.2629,-3.2634,-3.2641,-3.2661,-3.2618,-3.2622,-3.2614,-3.2612,-3.2627,-3.2628,-3.2634,-3.2671,-3.2671,-3.263,-3.2631,-3.2632,-3.2633,0,0,0,0,0,0,0,-3.2612,-3.2615,-3.2652,-3.2633,-3.2631,-3.2621,-3.2621,-3.2645,-3.2634,-3.2621,-3.2618,-3.262,-3.2626,-3.2632,-3.2633,-3.2671,-3.263,-3.2632,-3.2633,-3.2634,-3.2745,-3.2747,0,0,0,0,0,0,-3.2613,-3.2614,-3.2651,-3.2652,-3.2617,-3.2623,-3.2623,-3.2634,-3.2633,-3.2632,-3.2621,-3.2618,-3.2629,-3.2631,-3.2634,-3.2686,-3.2632,-3.2634,-3.2635,-3.2743,-3.2745,-3.2747,0,0,0,0,0,0,-3.2612,-3.2617,-3.2651,-3.2632,-3.2636,-3.2626,-3.2638,-3.2635,-3.2641,-3.2634,-3.2631,-3.263,-3.2628,-3.2631,-3.2661,-3.2686,-3.2635,-3.2637,-3.2741,-3.2744,-3.2746,-3.2792,0,0,0,0,0,0,-3.2611,-3.2617,-3.2635,-3.2633,-3.2637,-3.2679,-3.264,-3.2637,-3.2645,-3.264,-3.2641,-3.2639,-3.2627,-3.2659,-3.2663,-3.2687,-3.2638,-3.2739,-3.2742,-3.2745,-3.2788,-3.2796,-3.2803,0,0,0,0,0,-3.2609,-3.2648,-3.2636,-3.2641,-3.2659,-3.2681,-3.2683,-3.2668,-3.2647,-3.2664,-3.2659,-3.2639,-3.2683,-3.2662,-3.2667,-3.2692,-3.2737,-3.2741,-3.2745,-3.2785,-3.2795,-3.2803,0,0,0,0,0,0,-3.2653,-3.2647,-3.2634,-3.2673,-3.2678,-3.2674,-3.2696,-3.2679,-3.269,-3.2685,-3.2667,-3.2667,-3.27,-3.2699,-3.2676,-3.2736,-3.2706,-3.2711,-3.2735,-3.2744,-3.2751,-3.275,-3.264,0,0,0,0,0,-3.2667,-3.2685,-3.2679,-3.2715,-3.2717,-3.2706,-3.2715,-3.2703,-3.2707,-3.2709,-3.2706,-3.271,-3.2724,-3.2734,-3.2747,-3.2789,-3.2787,-3.2808,-3.2815,-3.2821,-3.2826,-3.2845,-3.2854,-3.2761,-3.2761,-3.276,0,0,-3.2697,-3.2696,-3.2709,-3.2723,-3.2725,-3.2743,-3.2708,-3.273,-3.2743,-3.2712,-3.274,-3.2738,-3.2741,-3.2777,-3.2792,-3.2777,-3.2851,-3.2826,-3.2831,-3.2832,-3.285,-3.2859,-3.2867,-3.2763,-3.2763,-3.2762,0,0,-3.276,-3.2762,-3.279,-3.2793,-3.2796,-3.2788,-3.2795,-3.2793,-3.2791,-3.2818,-3.2795,-3.281,-3.2836,-3.2839,-3.2844,-3.2906,-3.2887,-3.2911,-3.2948,-3.2967,-3.2974,-3.2981,-3.3001,-3.3009,-3.2915,-3.2915,-3.2916,0,-3.2796,-3.2823,-3.2807,-3.2829,-3.2835,-3.2808,-3.2836,-3.2839,-3.2847,-3.2852,-3.2835,-3.2865,-3.2866,-3.29,-3.2915,-3.2921,-3.2927,-3.291,-3.2975,-3.2981,-3.2987,-3.3006,-3.3014,-3.2918,-3.2918,-3.2918,-3.2917,0,-3.2866,-3.2885,-3.2908,-3.2915,-3.2924,-3.2949,-3.2936,-3.2947,-3.2934,-3.2928,-3.2955,-3.2955,-3.2966,-3.2974,-3.2963,-3.3007,-3.2997,-3.2978,-3.2947,-3.2998,-3.3016,-3.3023,-3.2922,-3.2921,-3.292,-3.292,0,0,-3.2957,-3.2954,-3.2962,-3.2964,-3.2965,-3.2979,-3.3002,-3.3013,-3.3022,-3.3028,-3.3046,-3.3068,-3.305,-3.3055,-3.3043,-3.3061,-3.3108,-3.3039,-3.3039,-3.305,-3.3154,-3.3167,-3.3176,-3.3096,-3.3097,-3.3098,-3.3153,0,-3.3017,-3.3056,-3.3042,-3.3082,-3.3098,-3.3072,-3.3092,-3.3094,-3.3089,-3.3101,-3.3095,-3.311,-3.3086,-3.3088,-3.3105,-3.3099,-3.3128,-3.3095,-3.3111,-3.3112,-3.3109,-3.3186,-3.32,-3.3252,-3.316,-3.3162,-3.3162,0,-3.3092,-3.31,-3.3141,-3.3137,-3.3144,-3.3162,-3.3169,-3.3182,-3.3184,-3.3179,-3.3184,-3.3168,-3.319,-3.316,-3.3189,-3.3167,-3.3173,-3.3171,-3.3172,-3.3172,-3.3139,-3.3186,-3.3269,-3.3276,-3.3173,-3.3173,-3.3172,0,-3.3151,-3.3172,-3.3199,-3.3202,-3.3199,-3.3212,-3.3211,-3.3211,-3.3218,-3.3225,-3.3229,-3.3239,-3.3244,-3.3251,-3.3238,-3.3218,-3.3268,-3.3238,-3.3263,-3.3263,-3.3274,-3.3273,-3.3357,-3.3281,-3.3281,-3.328,-3.328,0,-3.3219,-3.3244,-3.3225,-3.3242,-3.3269,-3.3252,-3.328,-3.3277,-3.3277,-3.3291,-3.327,-3.3284,-3.3267,-3.3279,-3.3269,-3.3293,-3.3296,-3.3291,-3.3288,-3.3292,-3.3293,-3.3295,-3.329,-3.3283,-3.3282,-3.3282,-3.3281,0,-3.3289,-3.3278,-3.3305,-3.3299,-3.3298,-3.3319,-3.3314,-3.3328,-3.3321,-3.334,-3.3343,-3.3332,-3.3345,-3.3333,-3.3346,-3.3339,-3.337,-3.3363,-3.337,-3.3367,-3.3392,-3.3389,-3.3479,-3.3489,-3.3408,-3.3409,-3.341,0,-3.3332,-3.3351,-3.3347,-3.3355,-3.3355,-3.3369,-3.3375,-3.3359,-3.3367,-3.3369,-3.3383,-3.3394,-3.3402,-3.3424,-3.3417,-3.3426,-3.3418,-3.3449,-3.3419,-3.3422,-3.3416,-3.3414,-3.3415,-3.3454,-3.3455,-3.3456,-3.3456,0,-3.3409,-3.3402,-3.3412,-3.3419,-3.3427,-3.3433,-3.3437,-3.3444,-3.3427,-3.3437,-3.345,-3.3456,-3.3468,-3.3479,-3.3486,-3.3485,-3.3468,-3.3466,-3.3472,-3.3475,-3.3478,-3.3475,-3.3384,-3.3464,-3.3463,-3.3462,-3.3462,-3.3462,-3.3465,-3.348,-3.3479,-3.349,-3.3491,-3.3495,-3.3507,-3.3501,-3.3511,-3.352,-3.351,-3.3525,-3.3525,-3.3532,-3.3533,-3.3544,-3.3531,-3.3541,-3.3542,-3.3544,-3.3547,-3.3477,-3.3546,-3.3546,-3.3545,-3.3545,-3.3545,0,-3.3539,-3.3536,-3.3547,-3.3552,-3.3561,-3.3544,-3.3547,-3.3555,-3.3568,-3.357,-3.3577,-3.3591,-3.3602,-3.3595,-3.3603,-3.3614,-3.3606,-3.3616,-3.3614,-3.3614,-3.3559,-3.3552,-3.3622,-3.3622,-3.3622,-3.3622,-3.3622,-3.3622,-3.3578,-3.3601,-3.3594,-3.3617,-3.3614,-3.3628,-3.3631,-3.3634,-3.3635,-3.3651,-3.3659,-3.3655,-3.3652,-3.366,-3.3668,-3.3666,-3.3669,-3.3683,-3.3677,-3.3626,-3.3618,-3.3611,-3.3604,-3.3684,-3.3684,-3.3731,-3.3731,-3.3731]}]]